W2BYV Weather Reports


Display with metric or nautical units.
time (UTC)temp
F
wind
direction
speed
MPH
gust
MPH
rain 1hr
in
rain 24hr
in
rain mn
in
humidity
%
barometer
mb
20210723201006 86 74 0.0 4.0 0.00 0.00 0.00 62 1017.2
20210723200511 87 66 0.0 4.0 0.00 0.00 0.00 58 1017.4
20210723200005 86 132 0.0 2.0 0.00 0.00 0.00 57 1017.5
20210723195504 85 132 0.0 2.0 0.00 0.00 0.00 61 1017.6
20210723195006 85 52 0.0 3.0 0.00 0.00 0.00 61 1017.7
20210723194523 86 99 0.0 3.0 0.00 0.00 0.00 66 1017.8
20210723194002 85 68 0.0 0.0 0.00 0.00 0.00 65 1017.9
20210723193502 84 67 0.0 0.0 0.00 0.00 0.00 67 1017.9
20210723193001 84 68 0.0 2.0 0.00 0.00 0.00 65 1017.9
20210723192507 85 48 0.0 3.0 0.00 0.00 0.00 60 1017.9
20210723192002 86 114 0.0 3.0 0.00 0.00 0.00 62 1018.0
20210723191503 86 111 0.0 1.0 0.00 0.00 0.00 59 1018.0
20210723191001 85 279 0.0 0.0 0.00 0.00 0.00 61 1017.9
20210723190503 84 126 0.0 2.0 0.00 0.00 0.00 64 1017.9
20210723190002 83 49 0.0 2.0 0.00 0.00 0.00 69 1018.0
20210723185600 84 72 0.0 4.0 0.00 0.00 0.00 67 1018.1
20210723185503 84 83 0.0 4.0 0.00 0.00 0.00 67 1018.1
20210723185113 85 76 0.0 4.0 0.00 0.00 0.00 63 1018.2
20210723184815 86 76 0.0 3.0 0.00 0.00 0.00 59 1018.3
20210723184106 86 86 0.0 4.0 0.00 0.00 0.00 61 1018.3
20210723183607 86 67 0.0 4.0 0.00 0.00 0.00 61 1018.2
20210723183148 85 208 0.0 4.0 0.00 0.00 0.00 61 1018.3
20210723182606 85 76 0.0 4.0 0.00 0.00 0.00 63 1018.3
20210723182058 85 141 0.0 4.0 0.00 0.00 0.00 62 1018.4
20210723181106 84 71 1.0 5.0 0.00 0.00 0.00 66 1018.4
20210723180601 85 79 0.0 6.0 0.00 0.00 0.00 69 1018.5
20210723180130 85 85 1.0 6.0 0.00 0.00 0.00 63 1018.4
20210723175604 85 6 0.0 4.0 0.00 0.00 0.00 60 1018.4
20210723175056 85 211 1.0 4.0 0.00 0.00 0.00 63 1018.5
20210723174649 84 92 0.0 3.0 0.00 0.00 0.00 66 1018.5
20210723174056 83 81 0.0 3.0 0.00 0.00 0.00 65 1018.6
20210723173605 83 59 0.0 2.0 0.00 0.00 0.00 63 1018.6
20210723173205 84 119 0.0 3.0 0.00 0.00 0.00 64 1018.6
20210723172556 84 348 0.0 3.0 0.00 0.00 0.00 62 1018.7
20210723172055 85 100 0.0 3.0 0.00 0.00 0.00 64 1018.8
20210723171649 85 88 0.0 3.0 0.00 0.00 0.00 69 1018.9
20210723171144 84 80 0.0 5.0 0.00 0.00 0.00 61 1019.0
20210723170605 85 52 0.0 5.0 0.00 0.00 0.00 63 1019.0
20210723170219 85 95 0.0 3.0 0.00 0.00 0.00 66 1019.0
20210723165554 85 191 0.0 2.0 0.00 0.00 0.00 66 1019.0
20210723165104 84 86 0.0 2.0 0.00 0.00 0.00 65 1019.0
20210723164629 84 143 0.0 4.0 0.00 0.00 0.00 70 1019.0
20210723164052 83 86 0.0 4.0 0.00 0.00 0.00 69 1019.1
20210723163551 84 70 0.0 4.0 0.00 0.00 0.00 67 1019.1
20210723163124 84 89 0.0 3.0 0.00 0.00 0.00 69 1019.2
20210723162552 83 273 0.0 2.0 0.00 0.00 0.00 69 1019.3
20210723162049 83 183 0.0 4.0 0.00 0.00 0.00 70 1019.3
20210723161641 83 278 0.0 4.0 0.00 0.00 0.00 71 1019.3
20210723161111 84 86 0.0 0.0 0.00 0.00 0.00 70 1019.3
20210723160554 83 94 0.0 1.0 0.00 0.00 0.00 72 1019.3
20210723160215 83 154 0.0 3.0 0.00 0.00 0.00 72 1019.3
20210723155548 83 140 0.0 4.0 0.00 0.00 0.00 70 1019.2
20210723155053 83 160 0.0 4.0 0.00 0.00 0.00 74 1019.4
20210723154610 82 269 0.0 6.0 0.00 0.00 0.00 76 1019.4
20210723154045 82 57 2.0 6.0 0.00 0.00 0.00 73 1019.5
20210723153544 82 111 0.0 4.0 0.00 0.00 0.00 74 1019.6
20210723153108 82 5 0.0 4.0 0.00 0.00 0.00 73 1019.6
20210723152544 82 82 0.0 5.0 0.00 0.00 0.00 77 1019.7
20210723152044 82 159 1.0 5.0 0.00 0.00 0.00 74 1019.7
20210723151621 82 93 0.0 0.0 0.00 0.00 0.00 74 1019.6
20210723151046 82 76 0.0 2.0 0.00 0.00 0.00 76 1019.6
20210723150607 82 208 0.0 3.0 0.00 0.00 0.00 72 1019.6
20210723150216 82 223 0.0 3.0 0.00 0.00 0.00 74 1019.7
20210723145546 82 122 0.0 1.0 0.00 0.00 0.00 77 1019.7
20210723145039 81 117 0.0 0.0 0.00 0.00 0.00 76 1019.7
20210723144600 80 69 0.0 4.0 0.00 0.00 0.00 77 1019.7
20210723144038 80 97 0.0 4.0 0.00 0.00 0.00 77 1019.7
20210723143541 80 218 0.0 2.0 0.00 0.00 0.00 80 1019.7
20210723143057 79 185 0.0 4.0 0.00 0.00 0.00 78 1019.8
20210723142536 79 245 0.0 3.0 0.00 0.00 0.00 80 1019.8
20210723142033 79 137 0.0 3.0 0.00 0.00 0.00 79 1019.8
20210723141543 79 280 0.0 3.0 0.00 0.00 0.00 79 1019.8
20210723132011 75 44 0.0 2.0 0.00 0.00 0.00 85 1019.8
20210723131508 75 76 0.0 2.0 0.00 0.00 0.00 88 1019.7
20210723131009 74 74 0.0 2.0 0.00 0.00 0.00 87 1019.7
20210723130505 74 78 0.0 2.0 0.00 0.00 0.00 87 1019.7
20210723130002 74 78 0.0 2.0 0.00 0.00 0.00 89 1019.6
20210723125503 73 85 0.0 2.0 0.00 0.00 0.00 89 1019.6
20210723125101 73 74 0.0 2.0 0.00 0.00 0.00 90 1019.6
20210723124632 72 346 0.0 2.0 0.00 0.00 0.00 91 1019.4
20210723124057 72 63 0.0 0.0 0.00 0.00 0.00 92 1019.5
20210723123555 71 57 0.0 0.0 0.00 0.00 0.00 92 1019.5
20210723123147 71 35 0.0 0.0 0.00 0.00 0.00 91 1019.4
20210723122553 70 34 0.0 0.0 0.00 0.00 0.00 91 1019.4
20210723122104 70 351 0.0 0.0 0.00 0.00 0.00 91 1019.3
20210723121619 70 22 0.0 0.0 0.00 0.00 0.00 91 1019.4
20210723121050 69 22 0.0 0.0 0.00 0.00 0.00 92 1019.3
20210723120550 68 46 0.0 0.0 0.00 0.00 0.00 92 1019.3
20210723120132 68 344 0.0 0.0 0.00 0.00 0.00 92 1019.2
20210723115552 68 275 0.0 0.0 0.00 0.00 0.00 92 1019.1
20210723115048 67 275 0.0 0.0 0.00 0.00 0.00 92 1019.1
20210723114729 66 275 0.0 0.0 0.00 0.00 0.00 92 1019.0
20210723114046 65 275 0.0 0.0 0.00 0.00 0.00 92 1019.0
20210723113545 65 275 0.0 0.0 0.00 0.00 0.00 92 1019.0
20210723113127 65 275 0.0 0.0 0.00 0.00 0.00 92 1019.0
20210723112544 64 275 0.0 0.0 0.00 0.00 0.00 92 1018.9
20210723112044 64 275 0.0 0.0 0.00 0.00 0.00 92 1018.8
20210723111604 64 275 0.0 0.0 0.00 0.00 0.00 92 1018.9
20210723111048 64 275 0.0 0.0 0.00 0.00 0.00 92 1018.8
20210723110559 64 275 0.0 0.0 0.00 0.00 0.00 92 1018.7
20210723110102 64 275 0.0 0.0 0.00 0.00 0.00 92 1018.7
20210723105542 63 275 0.0 0.0 0.00 0.00 0.00 92 1018.6
20210723105049 63 275 0.0 0.0 0.00 0.00 0.00 92 1018.6
20210723104626 63 275 0.0 0.0 0.00 0.00 0.00 92 1018.6
20210723104042 63 275 0.0 0.0 0.00 0.00 0.00 92 1018.6
20210723103547 63 275 0.0 0.0 0.00 0.00 0.00 92 1018.5
20210723103126 63 276 0.0 0.0 0.00 0.00 0.00 92 1018.4
20210723102548 63 275 0.0 0.0 0.00 0.00 0.00 92 1018.3
20210723102044 63 275 0.0 0.0 0.00 0.00 0.00 92 1018.4
20210723101620 63 275 0.0 0.0 0.00 0.00 0.00 92 1018.4
20210723101041 63 275 0.0 0.0 0.00 0.00 0.00 92 1018.4
20210723100541 63 275 0.0 0.0 0.00 0.00 0.00 92 1018.5
20210723100209 63 275 0.0 0.0 0.00 0.00 0.00 92 1018.3
20210723095542 63 275 0.0 0.0 0.00 0.00 0.00 92 1018.2
20210723095039 63 275 0.0 0.0 0.00 0.00 0.00 92 1018.3
20210723094553 63 275 0.0 0.0 0.00 0.00 0.00 92 1018.2
20210723094039 63 275 0.0 0.0 0.00 0.00 0.00 92 1018.2
20210723093548 64 275 0.0 0.0 0.00 0.00 0.00 92 1018.2
20210723093140 64 275 0.0 0.0 0.00 0.00 0.00 92 1018.1
20210723092538 64 275 0.0 0.0 0.00 0.00 0.00 92 1018.1
20210723092038 63 275 0.0 0.0 0.00 0.00 0.00 92 1018.2
20210723091547 63 275 0.0 0.0 0.00 0.00 0.00 92 1018.1
20210723091036 64 275 0.0 0.0 0.00 0.00 0.00 92 1018.1
20210723090536 64 275 0.0 0.0 0.00 0.00 0.00 92 1018.2
20210723090045 64 275 0.0 0.0 0.00 0.00 0.00 92 1018.1
20210723085534 64 275 0.0 0.0 0.00 0.00 0.00 92 1018.2
20210723085034 64 275 0.0 0.0 0.00 0.00 0.00 92 1018.1
20210723084714 64 275 0.0 0.0 0.00 0.00 0.00 92 1018.1
20210723084037 64 275 0.0 0.0 0.00 0.00 0.00 92 1018.1
20210723083534 64 275 0.0 0.0 0.00 0.00 0.00 92 1018.0
20210723083059 64 275 0.0 0.0 0.00 0.00 0.00 92 1018.0
20210723082534 64 275 0.0 0.0 0.00 0.00 0.00 92 1018.0
20210723082035 65 275 0.0 0.0 0.00 0.00 0.00 92 1017.9
20210723081551 65 275 0.0 0.0 0.00 0.00 0.00 92 1017.8
20210723081059 65 275 0.0 0.0 0.00 0.00 0.00 92 1017.9
20210723080532 65 275 0.0 0.0 0.00 0.00 0.00 92 1017.8
20210723080046 65 275 0.0 0.0 0.00 0.00 0.00 92 1017.8
20210723075534 65 275 0.0 0.0 0.00 0.00 0.00 92 1017.8
20210723075032 65 275 0.0 0.0 0.00 0.00 0.00 92 1017.8
20210723074538 65 275 0.0 0.0 0.00 0.00 0.00 92 1017.8
20210723074032 65 275 0.0 0.0 0.00 0.00 0.00 92 1017.8
20210723073536 65 275 0.0 0.0 0.00 0.00 0.00 92 1017.7
20210723073032 65 275 0.0 0.0 0.00 0.00 0.00 92 1017.8
20210723072540 65 275 0.0 0.0 0.00 0.00 0.00 92 1017.9
20210723072030 64 275 0.0 0.0 0.00 0.00 0.00 92 1017.9
20210723071710 64 275 0.0 0.0 0.00 0.00 0.00 92 1017.9
20210723071043 65 275 0.0 0.0 0.00 0.00 0.00 92 1017.9
20210723070528 65 275 0.0 0.0 0.00 0.00 0.00 92 1018.0
20210723070042 65 275 0.0 0.0 0.00 0.00 0.00 92 1018.0
20210723065532 65 275 0.0 0.0 0.00 0.00 0.00 92 1017.9
20210723065026 65 275 0.0 0.0 0.00 0.00 0.00 92 1018.0
20210723064612 65 275 0.0 0.0 0.00 0.00 0.00 92 1018.1
20210723064038 65 275 0.0 0.0 0.00 0.00 0.00 92 1018.1
20210723063524 65 275 0.0 0.0 0.00 0.00 0.00 92 1018.1
20210723063032 65 275 0.0 0.0 0.00 0.00 0.00 92 1018.2
20210723062523 65 275 0.0 0.0 0.00 0.00 0.00 92 1018.3
20210723062023 66 275 0.0 0.0 0.00 0.00 0.00 92 1018.3
20210723061533 65 275 0.0 0.0 0.00 0.00 0.00 92 1018.4
20210723061041 66 275 0.0 0.0 0.00 0.00 0.00 92 1018.4
20210723060531 66 275 0.0 0.0 0.00 0.00 0.00 92 1018.4
20210723060037 66 275 0.0 0.0 0.00 0.00 0.00 92 1018.5
20210723055520 66 275 0.0 0.0 0.00 0.00 0.00 92 1018.4
20210723055019 66 275 0.0 0.0 0.00 0.00 0.00 92 1018.4
20210723054600 66 275 0.0 0.0 0.00 0.00 0.00 92 1018.5
20210723054020 66 275 0.0 0.0 0.00 0.00 0.00 92 1018.6
20210723053518 66 275 0.0 0.0 0.00 0.00 0.00 92 1018.6
20210723053042 65 275 0.0 0.0 0.00 0.00 0.00 92 1018.6
20210723052517 66 275 0.0 0.0 0.00 0.00 0.00 92 1018.6
20210723052016 66 275 0.0 0.0 0.00 0.00 0.00 92 1018.6
20210723051521 66 275 0.0 0.0 0.00 0.00 0.00 92 1018.7
20210723051033 66 275 0.0 0.0 0.00 0.00 0.00 92 1018.7
20210723050527 66 275 0.0 0.0 0.00 0.00 0.00 92 1018.7
20210723050019 66 275 0.0 0.0 0.00 0.00 0.00 92 1018.7
20210723045511 67 275 0.0 0.0 0.00 0.00 0.00 92 1018.8
20210723045014 67 275 0.0 0.0 0.00 0.00 0.00 92 1018.7
20210723044539 67 275 0.0 0.0 0.00 0.00 0.00 92 1018.7
20210723044015 67 275 0.0 0.0 0.00 0.00 0.00 92 1018.7
20210723043514 67 275 0.0 0.0 0.00 0.00 0.00 92 1018.7
20210723043100 67 275 0.0 0.0 0.00 0.00 0.00 92 1018.7
20210723042507 67 275 0.0 0.0 0.00 0.00 0.00 92 1018.7
20210723042016 67 275 0.0 0.0 0.00 0.00 0.00 92 1018.7
20210723041508 67 275 0.0 0.0 0.00 0.00 0.00 92 1018.8
20210723041005 67 275 0.0 0.0 0.00 0.00 0.00 92 1018.7
20210723040503 67 276 0.0 0.0 0.00 0.00 0.00 92 1018.7
20210723040009 67 261 0.0 0.0 0.00 0.00 0.00 92 1018.7
20210723035502 67 261 0.0 0.0 0.00 0.00 0.00 92 1018.6
20210723034502 67 261 0.0 0.0 0.00 0.00 0.00 92 1018.5
20210723034002 68 261 0.0 0.0 0.00 0.00 0.00 92 1018.5
20210723033505 68 261 0.0 0.0 0.00 0.00 0.00 92 1018.5
20210723033002 68 261 0.0 0.0 0.00 0.00 0.00 92 1018.6
20210723032608 68 261 0.0 0.0 0.00 0.00 0.00 92 1018.5
20210723032001 68 107 0.0 0.0 0.00 0.00 0.00 92 1018.4
20210723031659 68 107 0.0 0.0 0.00 0.00 0.00 92 1018.5
20210723031109 68 107 0.0 0.0 0.00 0.00 0.00 92 1018.5
20210723030559 68 107 0.0 0.0 0.00 0.00 0.00 92 1018.6
20210723030132 68 107 0.0 0.0 0.00 0.00 0.00 92 1018.6
20210723025559 68 107 0.0 0.0 0.00 0.00 0.00 92 1018.5
20210723025059 69 107 0.0 0.0 0.00 0.00 0.00 92 1018.6
20210723024719 69 107 0.0 0.0 0.00 0.00 0.00 92 1018.7
20210723024102 69 107 0.0 0.0 0.00 0.00 0.00 92 1018.7
20210723023554 69 107 0.0 0.0 0.00 0.00 0.00 92 1018.7
20210723023205 69 107 0.0 0.0 0.00 0.00 0.00 92 1018.7
20210723022557 69 107 0.0 0.0 0.00 0.00 0.00 92 1018.7
20210723022054 69 107 0.0 0.0 0.00 0.00 0.00 92 1018.6
20210723021704 69 107 0.0 0.0 0.00 0.00 0.00 93 1018.6
20210723021053 69 107 0.0 0.0 0.00 0.00 0.00 92 1018.6
20210723020551 70 107 0.0 0.0 0.00 0.00 0.00 92 1018.5
20210723020151 70 107 0.0 0.0 0.00 0.00 0.00 92 1018.4
20210723015603 70 107 0.0 0.0 0.00 0.00 0.00 92 1018.5
20210723015105 70 107 0.0 0.0 0.00 0.00 0.00 92 1018.4
20210723014713 70 107 0.0 0.0 0.00 0.00 0.00 92 1018.3
20210723014135 70 107 0.0 0.0 0.00 0.00 0.00 92 1018.3
20210723013551 70 107 0.0 0.0 0.00 0.00 0.00 92 1018.2
20210723013141 70 107 0.0 0.0 0.00 0.00 0.00 92 1018.2
20210723012550 71 107 0.0 0.0 0.00 0.00 0.00 92 1018.1
20210723012051 71 107 0.0 0.0 0.00 0.00 0.00 92 1018.0
20210723011627 71 107 0.0 0.0 0.00 0.00 0.00 92 1017.9
20210723011050 71 107 0.0 0.0 0.00 0.00 0.00 92 1017.9
20210723010553 71 107 0.0 0.0 0.00 0.00 0.00 92 1017.9
20210723010229 72 107 0.0 0.0 0.00 0.00 0.00 92 1017.8
20210723005604 72 107 0.0 0.0 0.00 0.00 0.00 91 1017.9
20210723005146 72 107 0.0 0.0 0.00 0.00 0.00 91 1017.8
20210723004605 73 107 0.0 0.0 0.00 0.00 0.00 91 1017.8
20210723004052 73 107 0.0 0.0 0.00 0.00 0.00 90 1017.8
20210723003549 73 107 0.0 0.0 0.00 0.00 0.00 89 1017.9
20210723003254 74 107 0.0 0.0 0.00 0.00 0.00 89 1017.9
20210723002549 74 107 0.0 0.0 0.00 0.00 0.00 88 1017.8
20210723002048 75 107 0.0 0.0 0.00 0.00 0.00 86 1017.8
20210723001708 76 107 0.0 0.0 0.00 0.00 0.00 86 1017.9
20210723001113 76 107 0.0 0.0 0.00 0.00 0.00 85 1017.7
20210723000552 77 107 0.0 0.0 0.00 0.00 0.00 84 1017.7
20210723000145 78 107 0.0 0.0 0.00 0.00 0.00 83 1017.7
20210722235550 78 107 0.0 0.0 0.00 0.00 0.00 81 1017.6
20210722235051 79 107 0.0 0.0 0.00 0.00 0.00 80 1017.7
20210722234603 79 107 0.0 0.0 0.00 0.00 0.00 79 1017.6
20210722234048 80 107 0.0 0.0 0.00 0.00 0.00 78 1017.6
20210722233548 80 107 0.0 0.0 0.00 0.00 0.00 77 1017.5
20210722233110 81 107 0.0 0.0 0.00 0.00 0.00 77 1017.6
20210722232639 81 107 0.0 0.0 0.00 0.00 0.00 74 1017.5
20210722232057 82 107 0.0 1.0 0.00 0.00 0.00 74 1017.4
20210722231602 82 107 0.0 1.0 0.00 0.00 0.00 69 1017.4
20210722231132 83 123 0.0 0.0 0.00 0.00 0.00 70 1017.3
20210722230553 83 165 0.0 1.0 0.00 0.00 0.00 70 1017.3
20210722230146 82 166 0.0 1.0 0.00 0.00 0.00 71 1017.2
20210722225631 82 58 0.0 3.0 0.00 0.00 0.00 72 1017.2
20210722225047 83 72 0.0 3.0 0.00 0.00 0.00 69 1017.2
20210722224620 83 109 0.0 1.0 0.00 0.00 0.00 71 1017.2
20210722224053 83 83 0.0 0.0 0.00 0.00 0.00 74 1017.2
20210722223551 83 83 0.0 0.0 0.00 0.00 0.00 72 1017.1
20210722223140 82 83 0.0 0.0 0.00 0.00 0.00 73 1017.1
20210722222545 82 61 0.0 0.0 0.00 0.00 0.00 75 1017.0
20210722222045 82 61 0.0 1.0 0.00 0.00 0.00 76 1017.0
20210722221627 82 61 0.0 1.0 0.00 0.00 0.00 72 1017.0
20210722221046 83 287 0.0 0.0 0.00 0.00 0.00 70 1016.9
20210722220605 84 287 0.0 0.0 0.00 0.00 0.00 71 1016.8
20210722220059 84 287 0.0 0.0 0.00 0.00 0.00 65 1016.9
20210722215548 84 282 0.0 0.0 0.00 0.00 0.00 67 1016.8
20210722215104 84 282 0.0 0.0 0.00 0.00 0.00 64 1016.8
20210722214635 84 30 0.0 2.0 0.00 0.00 0.00 63 1016.8
20210722214044 85 139 0.0 2.0 0.00 0.00 0.00 60 1016.7
20210722213551 86 346 0.0 2.0 0.00 0.00 0.00 67 1016.7
20210722213156 85 301 0.0 2.0 0.00 0.00 0.00 61 1016.6
20210722212555 85 265 0.0 2.0 0.00 0.00 0.00 64 1016.6
20210722212043 85 281 0.0 4.0 0.00 0.00 0.00 66 1016.6
20210722211718 85 347 0.0 4.0 0.00 0.00 0.00 60 1016.6
20210722211042 86 43 0.0 2.0 0.00 0.00 0.00 63 1016.6
20210722210542 86 45 0.0 2.0 0.00 0.00 0.00 66 1016.5
20210722210059 86 75 0.0 1.0 0.00 0.00 0.00 61 1016.4
20210722205549 86 67 0.0 0.0 0.00 0.00 0.00 61 1016.4
20210722205049 86 358 0.0 0.0 0.00 0.00 0.00 63 1016.5
20210722204639 86 358 0.0 2.0 0.00 0.00 0.00 65 1016.5
20210722204047 86 309 0.0 3.0 0.00 0.00 0.00 59 1016.5
20210722203550 86 289 0.0 5.0 0.00 0.00 0.00 64 1016.6
20210722203117 86 45 1.0 5.0 0.00 0.00 0.00 60 1016.6
20210722202541 86 117 0.0 3.0 0.00 0.00 0.00 61 1016.6
20210722202048 86 251 0.0 5.0 0.00 0.00 0.00 58 1016.5
20210722201554 86 248 1.0 8.0 0.00 0.00 0.00 58 1016.5